Year,Month,Day,Hour,Minute,Value (Times are PST for temperature in C)
2006,08,03,00,00,14.90
2006,08,03,00,01,14.90
2006,08,03,00,02,14.80
2006,08,03,00,03,14.80
2006,08,03,00,04,14.80
2006,08,03,00,05,14.80
2006,08,03,00,06,14.80
2006,08,03,00,07,14.80
2006,08,03,00,08,14.80
2006,08,03,00,09,14.70
2006,08,03,00,10,14.70
2006,08,03,00,11,14.70
2006,08,03,00,12,14.60
2006,08,03,00,13,14.60
2006,08,03,00,14,14.60
2006,08,03,00,15,14.60
2006,08,03,00,16,14.60
2006,08,03,00,17,14.60
2006,08,03,00,18,14.60
2006,08,03,00,19,14.60
2006,08,03,00,20,14.60
2006,08,03,00,21,14.60
2006,08,03,00,22,14.50
2006,08,03,00,23,14.50
2006,08,03,00,24,14.50
2006,08,03,00,25,14.50
2006,08,03,00,26,14.50
2006,08,03,00,27,14.40
2006,08,03,00,28,14.40
2006,08,03,00,29,14.40
2006,08,03,00,30,14.40
2006,08,03,00,31,14.30
2006,08,03,00,32,14.30
2006,08,03,00,33,14.30
2006,08,03,00,34,14.20
2006,08,03,00,35,14.20
2006,08,03,00,36,14.20
2006,08,03,00,37,14.20
2006,08,03,00,38,14.20
2006,08,03,00,39,14.20
2006,08,03,00,40,14.20
2006,08,03,00,41,14.20
2006,08,03,00,42,14.20
2006,08,03,00,43,14.20
2006,08,03,00,44,14.20
2006,08,03,00,45,14.10
2006,08,03,00,46,14.10
2006,08,03,00,47,14.10
2006,08,03,00,48,14.00
2006,08,03,00,49,14.00
2006,08,03,00,50,14.00
2006,08,03,00,51,14.00
2006,08,03,00,52,13.90
2006,08,03,00,53,13.90
2006,08,03,00,54,13.90
2006,08,03,00,55,13.90
2006,08,03,00,56,13.90
2006,08,03,00,57,13.90
2006,08,03,00,58,13.90
2006,08,03,00,59,13.80
2006,08,03,01,00,13.80
2006,08,03,01,01,13.80
2006,08,03,01,02,13.80
2006,08,03,01,03,13.70
2006,08,03,01,04,13.70
2006,08,03,01,05,13.70
2006,08,03,01,06,13.70
2006,08,03,01,07,13.70
2006,08,03,01,08,13.70
2006,08,03,01,09,13.60
2006,08,03,01,10,13.60
2006,08,03,01,11,13.60
2006,08,03,01,12,13.60
2006,08,03,01,13,13.60
2006,08,03,01,14,13.50
2006,08,03,01,15,13.50
2006,08,03,01,16,13.50
2006,08,03,01,17,13.50
2006,08,03,01,18,13.40
2006,08,03,01,19,13.40
2006,08,03,01,20,13.30
2006,08,03,01,21,13.30
2006,08,03,01,22,13.30
2006,08,03,01,23,13.30
2006,08,03,01,24,13.30
2006,08,03,01,25,13.30
2006,08,03,01,26,13.20
2006,08,03,01,27,13.20
2006,08,03,01,28,13.20
2006,08,03,01,29,13.10
2006,08,03,01,30,13.10
2006,08,03,01,31,13.10
2006,08,03,01,32,13.10
2006,08,03,01,33,13.10
2006,08,03,01,34,13.00
2006,08,03,01,35,13.00
2006,08,03,01,36,13.00
2006,08,03,01,37,13.00
2006,08,03,01,38,13.00
2006,08,03,01,39,12.90
2006,08,03,01,40,12.90
2006,08,03,01,41,12.90
2006,08,03,01,42,12.90
2006,08,03,01,43,12.80
2006,08,03,01,44,12.80
2006,08,03,01,45,12.80
2006,08,03,01,46,12.80
2006,08,03,01,47,12.80
2006,08,03,01,48,12.80
2006,08,03,01,49,12.80
2006,08,03,01,50,12.80
2006,08,03,01,51,12.80
2006,08,03,01,52,12.80
2006,08,03,01,53,12.80
2006,08,03,01,54,12.80
2006,08,03,01,55,12.80
2006,08,03,01,56,12.70
2006,08,03,01,57,12.70
2006,08,03,01,58,12.70
2006,08,03,01,59,12.70
2006,08,03,02,00,12.60
2006,08,03,02,01,12.60
2006,08,03,02,02,12.60
2006,08,03,02,03,12.60
2006,08,03,02,04,12.50
2006,08,03,02,05,12.50
2006,08,03,02,06,12.50
2006,08,03,02,07,12.50
2006,08,03,02,08,12.50
2006,08,03,02,09,12.40
2006,08,03,02,10,12.40
2006,08,03,02,11,12.40
2006,08,03,02,12,12.40
2006,08,03,02,13,12.40
2006,08,03,02,14,12.40
2006,08,03,02,15,12.30
2006,08,03,02,16,12.30
2006,08,03,02,17,12.30
2006,08,03,02,18,12.30
2006,08,03,02,19,12.30
2006,08,03,02,20,12.30
2006,08,03,02,21,12.30
2006,08,03,02,22,12.30
2006,08,03,02,23,12.30
2006,08,03,02,24,12.30
2006,08,03,02,25,12.30
2006,08,03,02,26,12.30
2006,08,03,02,27,12.30
2006,08,03,02,28,12.20
2006,08,03,02,29,12.20
2006,08,03,02,30,12.20
2006,08,03,02,31,12.20
2006,08,03,02,32,12.10
2006,08,03,02,33,12.10
2006,08,03,02,34,12.10
2006,08,03,02,35,12.10
2006,08,03,02,36,12.00
2006,08,03,02,37,12.00
2006,08,03,02,38,12.00
2006,08,03,02,39,12.00
2006,08,03,02,40,12.00
2006,08,03,02,41,12.00
2006,08,03,02,42,11.90
2006,08,03,02,43,11.90
2006,08,03,02,44,11.90
2006,08,03,02,45,11.90
2006,08,03,02,46,11.80
2006,08,03,02,47,11.80
2006,08,03,02,48,11.80
2006,08,03,02,49,11.80
2006,08,03,02,50,11.80
2006,08,03,02,51,11.80
2006,08,03,02,52,11.80
2006,08,03,02,53,11.80
2006,08,03,02,54,11.80
2006,08,03,02,55,11.80
2006,08,03,02,56,11.80
2006,08,03,02,57,11.80
2006,08,03,02,58,11.80
2006,08,03,02,59,11.80
2006,08,03,03,00,11.80
2006,08,03,03,01,11.80
2006,08,03,03,02,11.80
2006,08,03,03,03,11.80
2006,08,03,03,04,11.70
2006,08,03,03,05,11.70
2006,08,03,03,06,11.70
2006,08,03,03,07,11.70
2006,08,03,03,08,11.70
2006,08,03,03,09,11.70
2006,08,03,03,10,11.70
2006,08,03,03,11,11.70
2006,08,03,03,12,11.70
2006,08,03,03,13,11.70
2006,08,03,03,14,11.70
2006,08,03,03,15,11.60
2006,08,03,03,16,11.60
2006,08,03,03,17,11.60
2006,08,03,03,18,11.60
2006,08,03,03,19,11.60
2006,08,03,03,20,11.60
2006,08,03,03,21,11.60
2006,08,03,03,22,11.60
2006,08,03,03,23,11.50
2006,08,03,03,24,11.40
2006,08,03,03,25,11.40
2006,08,03,03,26,11.40
2006,08,03,03,27,11.40
2006,08,03,03,28,11.40
2006,08,03,03,29,11.40
2006,08,03,03,30,11.40
2006,08,03,03,31,11.40
2006,08,03,03,32,11.40
2006,08,03,03,33,11.40
2006,08,03,03,34,11.40
2006,08,03,03,35,11.40
2006,08,03,03,36,11.40
2006,08,03,03,37,11.40
2006,08,03,03,38,11.40
2006,08,03,03,39,11.40
2006,08,03,03,40,11.40
2006,08,03,03,41,11.40
2006,08,03,03,42,11.40
2006,08,03,03,43,11.40
2006,08,03,03,44,11.40
2006,08,03,03,45,11.40
2006,08,03,03,46,11.40
2006,08,03,03,47,11.40
2006,08,03,03,48,11.40
2006,08,03,03,49,11.40
2006,08,03,03,50,11.30
2006,08,03,03,51,11.30
2006,08,03,03,52,11.30
2006,08,03,03,53,11.30
2006,08,03,03,54,11.30
2006,08,03,03,55,11.20
2006,08,03,03,56,11.20
2006,08,03,03,57,11.20
2006,08,03,03,58,11.20
2006,08,03,03,59,11.10
2006,08,03,04,00,11.10
2006,08,03,04,01,11.10
2006,08,03,04,02,11.10
2006,08,03,04,03,11.00
2006,08,03,04,04,10.90
2006,08,03,04,05,10.90
2006,08,03,04,06,10.90
2006,08,03,04,07,10.90
2006,08,03,04,08,10.90
2006,08,03,04,09,10.90
2006,08,03,04,10,10.80
2006,08,03,04,11,10.80
2006,08,03,04,12,10.70
2006,08,03,04,13,10.70
2006,08,03,04,14,10.70
2006,08,03,04,15,10.70
2006,08,03,04,16,10.60
2006,08,03,04,17,10.60
2006,08,03,04,18,10.60
2006,08,03,04,19,10.60
2006,08,03,04,20,10.60
2006,08,03,04,21,10.60
2006,08,03,04,22,10.60
2006,08,03,04,23,10.60
2006,08,03,04,24,10.60
2006,08,03,04,25,10.60
2006,08,03,04,26,10.60
2006,08,03,04,27,10.60
2006,08,03,04,28,10.60
2006,08,03,04,29,10.50
2006,08,03,04,30,10.40
2006,08,03,04,31,10.40
2006,08,03,04,32,10.40
2006,08,03,04,33,10.40
2006,08,03,04,34,10.40
2006,08,03,04,35,10.40
2006,08,03,04,36,10.40
2006,08,03,04,37,10.40
2006,08,03,04,38,10.40
2006,08,03,04,39,10.40
2006,08,03,04,40,10.40
2006,08,03,04,41,10.40
2006,08,03,04,42,10.40
2006,08,03,04,43,10.40
2006,08,03,04,44,10.40
2006,08,03,04,45,10.30
2006,08,03,04,46,10.30
2006,08,03,04,47,10.30
2006,08,03,04,48,10.30
2006,08,03,04,49,10.30
2006,08,03,04,50,10.30
2006,08,03,04,51,10.30
2006,08,03,04,52,10.20
2006,08,03,04,53,10.20
2006,08,03,04,54,10.20
2006,08,03,04,55,10.20
2006,08,03,04,56,10.20
2006,08,03,04,57,10.10
2006,08,03,04,58,10.10
2006,08,03,04,59,10.10
2006,08,03,05,00,10.10
2006,08,03,05,01,10.10
2006,08,03,05,02,10.10
2006,08,03,05,03,10.10
2006,08,03,05,04,10.10
2006,08,03,05,05,10.10
2006,08,03,05,06,10.00
2006,08,03,05,07,9.90
2006,08,03,05,08,9.90
2006,08,03,05,09,9.90
2006,08,03,05,10,9.90
2006,08,03,05,11,9.90
2006,08,03,05,12,9.90
2006,08,03,05,13,9.90
2006,08,03,05,14,9.90
2006,08,03,05,15,9.90
2006,08,03,05,16,9.90
2006,08,03,05,17,9.90
2006,08,03,05,18,9.90
2006,08,03,05,19,9.90
2006,08,03,05,20,9.90
2006,08,03,05,21,9.90
2006,08,03,05,22,9.90
2006,08,03,05,23,9.90
2006,08,03,05,24,9.90
2006,08,03,05,25,9.90
2006,08,03,05,26,9.90
2006,08,03,05,27,10.00
2006,08,03,05,28,10.10
2006,08,03,05,29,10.10
2006,08,03,05,30,10.10
2006,08,03,05,31,10.10
2006,08,03,05,32,10.10
2006,08,03,05,33,10.10
2006,08,03,05,34,10.10
2006,08,03,05,35,10.10
2006,08,03,05,36,10.10
2006,08,03,05,37,10.10
2006,08,03,05,38,10.10
2006,08,03,05,39,10.10
2006,08,03,05,40,10.00
2006,08,03,05,41,9.90
2006,08,03,05,42,9.90
2006,08,03,05,43,9.90
2006,08,03,05,44,9.90
2006,08,03,05,45,9.90
2006,08,03,05,46,9.90
2006,08,03,05,47,9.90
2006,08,03,05,48,9.90
2006,08,03,05,49,9.90
2006,08,03,05,50,9.90
2006,08,03,05,51,9.90
2006,08,03,05,52,9.90
2006,08,03,05,53,9.90
2006,08,03,05,54,9.90
2006,08,03,05,55,9.90
2006,08,03,05,56,9.90
2006,08,03,05,57,9.90
2006,08,03,05,58,9.90
2006,08,03,05,59,9.90
2006,08,03,06,00,9.90
2006,08,03,06,01,9.90
2006,08,03,06,02,9.90
2006,08,03,06,03,9.90
2006,08,03,06,04,9.90
2006,08,03,06,05,9.90
2006,08,03,06,06,9.90
2006,08,03,06,07,9.90
2006,08,03,06,08,9.90
2006,08,03,06,09,9.90
2006,08,03,06,10,9.90
2006,08,03,06,11,9.90
2006,08,03,06,12,9.90
2006,08,03,06,13,9.90
2006,08,03,06,14,9.90
2006,08,03,06,15,9.90
2006,08,03,06,16,9.90
2006,08,03,06,17,9.90
2006,08,03,06,18,9.90
2006,08,03,06,19,9.80
2006,08,03,06,20,9.80
2006,08,03,06,21,9.80
2006,08,03,06,22,9.80
2006,08,03,06,23,9.80
2006,08,03,06,24,9.80
2006,08,03,06,25,9.80
2006,08,03,06,26,9.80
2006,08,03,06,27,9.80
2006,08,03,06,28,9.80
2006,08,03,06,29,9.80
2006,08,03,06,30,9.80
2006,08,03,06,31,9.80
2006,08,03,06,32,9.80
2006,08,03,06,33,9.80
2006,08,03,06,34,9.80
2006,08,03,06,35,9.80
2006,08,03,06,36,9.80
2006,08,03,06,37,9.80
2006,08,03,06,38,9.80
2006,08,03,06,39,9.80
2006,08,03,06,40,9.80
2006,08,03,06,41,9.80
2006,08,03,06,42,9.80
2006,08,03,06,43,9.80
2006,08,03,06,44,9.80
2006,08,03,06,45,9.80
2006,08,03,06,46,9.80
2006,08,03,06,47,9.80
2006,08,03,06,48,9.80
2006,08,03,06,49,9.80
2006,08,03,06,50,9.80
2006,08,03,06,51,9.90
2006,08,03,06,52,9.90
2006,08,03,06,53,9.90
2006,08,03,06,54,9.90
2006,08,03,06,55,9.90
2006,08,03,06,56,9.90
2006,08,03,06,57,9.90
2006,08,03,06,58,9.90
2006,08,03,06,59,9.90
2006,08,03,07,00,10.10
2006,08,03,07,01,10.10
2006,08,03,07,02,10.10
2006,08,03,07,03,10.20
2006,08,03,07,04,10.20
2006,08,03,07,05,10.30
2006,08,03,07,06,10.40
2006,08,03,07,07,10.40
2006,08,03,07,08,10.50
2006,08,03,07,09,10.60
2006,08,03,07,10,10.60
2006,08,03,07,11,10.60
2006,08,03,07,12,10.70
2006,08,03,07,13,10.80
2006,08,03,07,14,10.90
2006,08,03,07,15,11.10
2006,08,03,07,16,11.20
2006,08,03,07,17,11.30
2006,08,03,07,18,11.40
2006,08,03,07,19,11.50
2006,08,03,07,20,11.60
2006,08,03,07,21,11.70
2006,08,03,07,22,11.80
2006,08,03,07,23,11.90
2006,08,03,07,24,11.90
2006,08,03,07,25,12.00
2006,08,03,07,26,12.10
2006,08,03,07,27,12.20
2006,08,03,07,28,12.30
2006,08,03,07,29,12.30
2006,08,03,07,30,12.30
2006,08,03,07,31,12.40
2006,08,03,07,32,12.40
2006,08,03,07,33,12.50
2006,08,03,07,34,12.50
2006,08,03,07,35,12.60
2006,08,03,07,36,12.70
2006,08,03,07,37,12.70
2006,08,03,07,38,12.80
2006,08,03,07,39,12.80
2006,08,03,07,40,12.80
2006,08,03,07,41,12.90
2006,08,03,07,42,12.90
2006,08,03,07,43,13.00
2006,08,03,07,44,13.10
2006,08,03,07,45,13.20
2006,08,03,07,46,13.30
2006,08,03,07,47,13.50
2006,08,03,07,48,13.60
2006,08,03,07,49,13.70
2006,08,03,07,50,13.80
2006,08,03,07,51,13.90
2006,08,03,07,52,13.90
2006,08,03,07,53,14.00
2006,08,03,07,54,14.10
2006,08,03,07,55,14.20
2006,08,03,07,56,14.20
2006,08,03,07,57,14.20
2006,08,03,07,58,14.30
2006,08,03,07,59,14.40
2006,08,03,08,00,14.50
2006,08,03,08,01,14.60
2006,08,03,08,02,14.70
2006,08,03,08,03,14.80
2006,08,03,08,04,14.80
2006,08,03,08,05,14.90
2006,08,03,08,06,15.00
2006,08,03,08,07,15.10
2006,08,03,08,08,15.20
2006,08,03,08,09,15.20
2006,08,03,08,10,15.20
2006,08,03,08,11,15.30
2006,08,03,08,12,15.40
2006,08,03,08,13,15.40
2006,08,03,08,14,15.50
2006,08,03,08,15,15.50
2006,08,03,08,16,15.60
2006,08,03,08,17,15.70
2006,08,03,08,18,15.80
2006,08,03,08,19,15.80
2006,08,03,08,20,15.90
2006,08,03,08,21,16.00
2006,08,03,08,22,16.10
2006,08,03,08,23,16.20
2006,08,03,08,24,16.30
2006,08,03,08,25,16.30
2006,08,03,08,26,16.40
2006,08,03,08,27,16.40
2006,08,03,08,28,16.50
2006,08,03,08,29,16.70
2006,08,03,08,30,16.70
2006,08,03,08,31,16.80
2006,08,03,08,32,16.90
2006,08,03,08,33,16.90
2006,08,03,08,34,17.00
2006,08,03,08,35,17.10
2006,08,03,08,36,17.20
2006,08,03,08,37,17.30
2006,08,03,08,38,17.30
2006,08,03,08,39,17.40
2006,08,03,08,40,17.40
2006,08,03,08,41,17.50
2006,08,03,08,42,17.50
2006,08,03,08,43,17.50
2006,08,03,08,44,17.50
2006,08,03,08,45,17.50
2006,08,03,08,46,17.60
2006,08,03,08,47,17.70
2006,08,03,08,48,17.80
2006,08,03,08,49,17.80
2006,08,03,08,50,17.90
2006,08,03,08,51,17.90
2006,08,03,08,52,17.80
2006,08,03,08,53,17.80
2006,08,03,08,54,17.80
2006,08,03,08,55,17.80
2006,08,03,08,56,17.80
2006,08,03,08,57,17.80
2006,08,03,08,58,17.90
2006,08,03,08,59,17.90
2006,08,03,09,00,17.90
2006,08,03,09,01,17.90
2006,08,03,09,02,17.90
2006,08,03,09,03,17.90
2006,08,03,09,04,17.90
2006,08,03,09,05,17.90
2006,08,03,09,06,17.90
2006,08,03,09,07,17.90
2006,08,03,09,08,17.90
2006,08,03,09,09,18.00
2006,08,03,09,10,18.10
2006,08,03,09,11,18.10
2006,08,03,09,12,18.10
2006,08,03,09,13,18.10
2006,08,03,09,14,18.10
2006,08,03,09,15,18.10
2006,08,03,09,16,18.20
2006,08,03,09,17,18.20
2006,08,03,09,18,18.20
2006,08,03,09,19,18.20
2006,08,03,09,20,18.20
2006,08,03,09,21,18.20
2006,08,03,09,22,18.20
2006,08,03,09,23,18.30
2006,08,03,09,24,18.40
2006,08,03,09,25,18.50
2006,08,03,09,26,18.50
2006,08,03,09,27,18.40
2006,08,03,09,28,18.40
2006,08,03,09,29,18.50
2006,08,03,09,30,18.50
2006,08,03,09,31,18.60
2006,08,03,09,32,18.70
2006,08,03,09,33,18.80
2006,08,03,09,34,18.90
2006,08,03,09,35,18.90
2006,08,03,09,36,19.00
2006,08,03,09,37,19.10
2006,08,03,09,38,19.10
2006,08,03,09,39,19.20
2006,08,03,09,40,19.20
2006,08,03,09,41,19.20
2006,08,03,09,42,19.20
2006,08,03,09,43,19.10
2006,08,03,09,44,19.10
2006,08,03,09,45,19.20
2006,08,03,09,46,19.10
2006,08,03,09,47,19.10
2006,08,03,09,48,19.00
2006,08,03,09,49,18.90
2006,08,03,09,50,18.90
2006,08,03,09,51,18.90
2006,08,03,09,52,18.90
2006,08,03,09,53,18.80
2006,08,03,09,54,18.80
2006,08,03,09,55,18.80
2006,08,03,09,56,18.90
2006,08,03,09,57,18.90
2006,08,03,09,58,19.00
2006,08,03,09,59,19.10
2006,08,03,10,00,19.10
2006,08,03,10,01,19.20
2006,08,03,10,02,19.20
2006,08,03,10,03,19.30
2006,08,03,10,04,19.30
2006,08,03,10,05,19.40
2006,08,03,10,06,19.40
2006,08,03,10,07,19.40
2006,08,03,10,08,19.30
2006,08,03,10,09,19.30
2006,08,03,10,10,19.30
2006,08,03,10,11,19.40
2006,08,03,10,12,19.40
2006,08,03,10,13,19.50
2006,08,03,10,14,19.60
2006,08,03,10,15,19.60
2006,08,03,10,16,19.60
2006,08,03,10,17,19.60
2006,08,03,10,18,19.60
2006,08,03,10,19,19.60
2006,08,03,10,20,19.60
2006,08,03,10,21,19.50
2006,08,03,10,22,19.50
2006,08,03,10,23,19.50
2006,08,03,10,24,19.50
2006,08,03,10,25,19.50
2006,08,03,10,26,19.60
2006,08,03,10,27,19.70
2006,08,03,10,28,19.80
2006,08,03,10,29,19.80
2006,08,03,10,30,19.70
2006,08,03,10,31,19.60
2006,08,03,10,32,19.60
2006,08,03,10,33,19.70
2006,08,03,10,34,19.70
2006,08,03,10,35,19.80
2006,08,03,10,36,19.80
2006,08,03,10,37,19.80
2006,08,03,10,38,19.80
2006,08,03,10,39,19.80
2006,08,03,10,40,19.80
2006,08,03,10,41,19.80
2006,08,03,10,42,19.80
2006,08,03,10,43,19.90
2006,08,03,10,44,19.90
2006,08,03,10,45,19.90
2006,08,03,10,46,19.90
2006,08,03,10,47,19.90
2006,08,03,10,48,19.90
2006,08,03,10,49,19.90
2006,08,03,10,50,20.00
2006,08,03,10,51,20.10
2006,08,03,10,52,20.10
2006,08,03,10,53,20.10
2006,08,03,10,54,20.10
2006,08,03,10,55,20.10
2006,08,03,10,56,20.00
2006,08,03,10,57,19.90
2006,08,03,10,58,19.90
2006,08,03,10,59,19.90
2006,08,03,11,00,19.90
2006,08,03,11,01,19.90
2006,08,03,11,02,19.90
2006,08,03,11,03,20.00
2006,08,03,11,04,20.10
2006,08,03,11,05,20.10
2006,08,03,11,06,20.10
2006,08,03,11,07,20.10
2006,08,03,11,08,20.00
2006,08,03,11,09,19.90
2006,08,03,11,10,20.10
2006,08,03,11,11,20.20
2006,08,03,11,12,20.20
2006,08,03,11,13,20.20
2006,08,03,11,14,20.10
2006,08,03,11,15,20.20
2006,08,03,11,16,20.20
2006,08,03,11,17,20.20
2006,08,03,11,18,20.30
2006,08,03,11,19,20.40
2006,08,03,11,20,20.40
2006,08,03,11,21,20.40
2006,08,03,11,22,20.30
2006,08,03,11,23,20.20
2006,08,03,11,24,20.20
2006,08,03,11,25,20.30
2006,08,03,11,26,20.30
2006,08,03,11,27,20.30
2006,08,03,11,28,20.30
2006,08,03,11,29,20.20
2006,08,03,11,30,20.20
2006,08,03,11,31,20.20
2006,08,03,11,32,20.20
2006,08,03,11,33,20.30
2006,08,03,11,34,20.30
2006,08,03,11,35,20.30
2006,08,03,11,36,20.30
2006,08,03,11,37,20.30
2006,08,03,11,38,20.30
2006,08,03,11,39,20.20
2006,08,03,11,40,20.20
2006,08,03,11,41,20.20
2006,08,03,11,42,20.20
2006,08,03,11,43,20.40
2006,08,03,11,44,20.40
2006,08,03,11,45,20.50
2006,08,03,11,46,20.50
2006,08,03,11,47,20.60
2006,08,03,11,48,20.70
2006,08,03,11,49,20.70
2006,08,03,11,50,20.70
2006,08,03,11,51,20.60
2006,08,03,11,52,20.70
2006,08,03,11,53,20.60
2006,08,03,11,54,20.70
2006,08,03,11,55,20.60
2006,08,03,11,56,20.60
2006,08,03,11,57,20.70
2006,08,03,11,58,20.80
2006,08,03,11,59,20.90
2006,08,03,12,00,20.90
2006,08,03,12,01,21.00
2006,08,03,12,02,21.00
2006,08,03,12,03,20.90
2006,08,03,12,04,20.90
2006,08,03,12,05,20.80
2006,08,03,12,06,20.80
2006,08,03,12,07,20.80
2006,08,03,12,08,20.80
2006,08,03,12,09,20.80
2006,08,03,12,10,20.70
2006,08,03,12,11,20.60
2006,08,03,12,12,20.50
2006,08,03,12,13,20.50
2006,08,03,12,14,20.50
2006,08,03,12,15,20.60
2006,08,03,12,16,20.60
2006,08,03,12,17,20.60
2006,08,03,12,18,20.60
2006,08,03,12,19,20.60
2006,08,03,12,20,20.60
2006,08,03,12,21,20.60
2006,08,03,12,22,20.60
2006,08,03,12,23,20.70
2006,08,03,12,24,20.80
2006,08,03,12,25,20.90
2006,08,03,12,26,21.00
2006,08,03,12,27,21.00
2006,08,03,12,28,20.90
2006,08,03,12,29,20.80
2006,08,03,12,30,20.90
2006,08,03,12,31,21.00
2006,08,03,12,32,21.00
2006,08,03,12,33,21.00
2006,08,03,12,34,21.00
2006,08,03,12,35,21.00
2006,08,03,12,36,20.90
2006,08,03,12,37,21.00
2006,08,03,12,38,21.00
2006,08,03,12,39,21.10
2006,08,03,12,40,21.10
2006,08,03,12,41,21.00
2006,08,03,12,42,21.00
2006,08,03,12,43,21.00
2006,08,03,12,44,21.00
2006,08,03,12,45,21.00
2006,08,03,12,46,21.00
2006,08,03,12,47,20.90
2006,08,03,12,48,20.80
2006,08,03,12,49,20.80
2006,08,03,12,50,20.90
2006,08,03,12,51,20.90
2006,08,03,12,52,21.00
2006,08,03,12,53,21.10
2006,08,03,12,54,21.10
2006,08,03,12,55,21.20
2006,08,03,12,56,21.30
2006,08,03,12,57,21.30
2006,08,03,12,58,21.30
2006,08,03,12,59,21.30
2006,08,03,13,00,21.20
2006,08,03,13,01,21.30
2006,08,03,13,02,21.30
2006,08,03,13,03,21.30
2006,08,03,13,04,21.40
2006,08,03,13,05,21.50
2006,08,03,13,06,21.60
2006,08,03,13,07,21.60
2006,08,03,13,08,21.70
2006,08,03,13,09,21.70
2006,08,03,13,10,21.70
2006,08,03,13,11,21.70
2006,08,03,13,12,21.80
2006,08,03,13,13,21.80
2006,08,03,13,14,21.70
2006,08,03,13,15,21.60
2006,08,03,13,16,21.70
2006,08,03,13,17,21.70
2006,08,03,13,18,21.70
2006,08,03,13,19,21.70
2006,08,03,13,20,21.70
2006,08,03,13,21,21.80
2006,08,03,13,22,21.80
2006,08,03,13,23,21.80
2006,08,03,13,24,21.90
2006,08,03,13,25,21.90
2006,08,03,13,26,21.90
2006,08,03,13,27,22.00
2006,08,03,13,28,22.00
2006,08,03,13,29,22.00
2006,08,03,13,30,22.00
2006,08,03,13,31,22.10
2006,08,03,13,32,22.10
2006,08,03,13,33,22.10
2006,08,03,13,34,22.10
2006,08,03,13,35,22.00
2006,08,03,13,36,22.10
2006,08,03,13,37,22.10
2006,08,03,13,38,22.20
2006,08,03,13,39,22.30
2006,08,03,13,40,22.30
2006,08,03,13,41,22.30
2006,08,03,13,42,22.30
2006,08,03,13,43,22.30
2006,08,03,13,44,22.40
2006,08,03,13,45,22.40
2006,08,03,13,46,22.50
2006,08,03,13,47,22.40
2006,08,03,13,48,22.40
2006,08,03,13,49,22.30
2006,08,03,13,50,22.20
2006,08,03,13,51,22.20
2006,08,03,13,52,22.10
2006,08,03,13,53,22.00
2006,08,03,13,54,22.00
2006,08,03,13,55,22.10
2006,08,03,13,56,22.20
2006,08,03,13,57,22.30
2006,08,03,13,58,22.30
2006,08,03,13,59,22.40
2006,08,03,14,00,22.40
2006,08,03,14,01,22.40
2006,08,03,14,02,22.40
2006,08,03,14,03,22.40
2006,08,03,14,04,22.30
2006,08,03,14,05,22.40
2006,08,03,14,06,22.30
2006,08,03,14,07,22.30
2006,08,03,14,08,22.40
2006,08,03,14,09,22.50
2006,08,03,14,10,22.40
2006,08,03,14,11,22.50
2006,08,03,14,12,22.50
2006,08,03,14,13,22.40
2006,08,03,14,14,22.40
2006,08,03,14,15,22.40
2006,08,03,14,16,22.60
2006,08,03,14,17,22.80
2006,08,03,14,18,22.90
2006,08,03,14,19,22.90
2006,08,03,14,20,23.00
2006,08,03,14,21,23.10
2006,08,03,14,22,23.10
2006,08,03,14,23,23.20
2006,08,03,14,24,23.20
2006,08,03,14,25,23.30
2006,08,03,14,26,23.30
2006,08,03,14,27,23.30
2006,08,03,14,28,23.30
2006,08,03,14,29,23.20
2006,08,03,14,30,23.20
2006,08,03,14,31,23.10
2006,08,03,14,32,23.10
2006,08,03,14,33,23.10
2006,08,03,14,34,23.10
2006,08,03,14,35,23.10
2006,08,03,14,36,23.20
2006,08,03,14,37,23.30
2006,08,03,14,38,23.20
2006,08,03,14,39,23.20
2006,08,03,14,40,23.20
2006,08,03,14,41,23.20
2006,08,03,14,42,23.30
2006,08,03,14,43,23.30
2006,08,03,14,44,23.20
2006,08,03,14,45,23.20
2006,08,03,14,46,23.10
2006,08,03,14,47,23.10
2006,08,03,14,48,23.00
2006,08,03,14,49,22.90
2006,08,03,14,50,22.90
2006,08,03,14,51,22.90
2006,08,03,14,52,23.00
2006,08,03,14,53,23.10
2006,08,03,14,54,23.10
2006,08,03,14,55,23.00
2006,08,03,14,56,22.90
2006,08,03,14,57,22.90
2006,08,03,14,58,22.90
2006,08,03,14,59,22.90
2006,08,03,15,00,22.90
2006,08,03,15,01,22.90
2006,08,03,15,02,22.90
2006,08,03,15,03,22.80
2006,08,03,15,04,22.90
2006,08,03,15,05,22.90
2006,08,03,15,06,22.90
2006,08,03,15,07,23.00
2006,08,03,15,08,23.20
2006,08,03,15,09,23.20
2006,08,03,15,10,23.10
2006,08,03,15,11,23.10
2006,08,03,15,12,23.10
2006,08,03,15,13,23.10
2006,08,03,15,14,23.40
2006,08,03,15,15,23.40
2006,08,03,15,16,23.50
2006,08,03,15,17,23.60
2006,08,03,15,18,23.60
2006,08,03,15,19,23.60
2006,08,03,15,20,23.40
2006,08,03,15,21,23.40
2006,08,03,15,22,23.30
2006,08,03,15,23,23.40
2006,08,03,15,24,23.40
2006,08,03,15,25,23.60
2006,08,03,15,26,23.70
2006,08,03,15,27,23.70
2006,08,03,15,28,23.70
2006,08,03,15,29,23.70
2006,08,03,15,30,23.70
2006,08,03,15,31,23.70
2006,08,03,15,32,23.80
2006,08,03,15,33,23.90
2006,08,03,15,34,24.00
2006,08,03,15,35,23.90
2006,08,03,15,36,23.90
2006,08,03,15,37,23.80
2006,08,03,15,38,23.80
2006,08,03,15,39,23.80
2006,08,03,15,40,23.90
2006,08,03,15,41,23.90
2006,08,03,15,42,24.10
2006,08,03,15,43,24.10
2006,08,03,15,44,24.10
2006,08,03,15,45,24.10
2006,08,03,15,46,24.10
2006,08,03,15,47,24.10
2006,08,03,15,48,24.10
2006,08,03,15,49,24.10
2006,08,03,15,50,24.10
2006,08,03,15,51,24.10
2006,08,03,15,52,24.00
2006,08,03,15,53,23.90
2006,08,03,15,54,23.90
2006,08,03,15,55,23.90
2006,08,03,15,56,23.90
2006,08,03,15,57,23.90
2006,08,03,15,58,23.90
2006,08,03,15,59,23.90
2006,08,03,16,00,23.90
2006,08,03,16,01,23.90
2006,08,03,16,02,23.70
2006,08,03,16,03,23.70
2006,08,03,16,04,23.70
2006,08,03,16,05,23.70
2006,08,03,16,06,23.70
2006,08,03,16,07,23.80
2006,08,03,16,08,23.80
2006,08,03,16,09,23.80
2006,08,03,16,10,23.70
2006,08,03,16,11,23.70
2006,08,03,16,12,23.70
2006,08,03,16,13,23.70
2006,08,03,16,14,23.60
2006,08,03,16,15,23.50
2006,08,03,16,16,23.30
2006,08,03,16,17,23.30
2006,08,03,16,18,23.30
2006,08,03,16,19,23.20
2006,08,03,16,20,23.10
2006,08,03,16,21,23.00
2006,08,03,16,22,22.90
2006,08,03,16,23,23.00
2006,08,03,16,24,23.10
2006,08,03,16,25,23.20
2006,08,03,16,26,23.20
2006,08,03,16,27,23.30
2006,08,03,16,28,23.30
2006,08,03,16,29,23.40
2006,08,03,16,30,23.50
2006,08,03,16,31,23.60
2006,08,03,16,32,23.70
2006,08,03,16,33,23.70
2006,08,03,16,34,23.70
2006,08,03,16,35,23.70
2006,08,03,16,36,23.80
2006,08,03,16,37,23.80
2006,08,03,16,38,23.80
2006,08,03,16,39,23.90
2006,08,03,16,40,23.90
2006,08,03,16,41,23.90
2006,08,03,16,42,24.00
2006,08,03,16,43,24.00
2006,08,03,16,44,23.90
2006,08,03,16,45,23.90
2006,08,03,16,46,24.00
2006,08,03,16,47,24.10
2006,08,03,16,48,24.10
2006,08,03,16,49,24.10
2006,08,03,16,50,24.10
2006,08,03,16,51,24.10
2006,08,03,16,52,24.10
2006,08,03,16,53,24.10
2006,08,03,16,54,24.10
2006,08,03,16,55,24.00
2006,08,03,16,56,23.90
2006,08,03,16,57,23.90
2006,08,03,16,58,23.90
2006,08,03,16,59,23.90
2006,08,03,17,00,23.80
2006,08,03,17,01,23.80
2006,08,03,17,02,23.80
2006,08,03,17,03,23.70
2006,08,03,17,04,23.80
2006,08,03,17,05,23.80
2006,08,03,17,06,23.80
2006,08,03,17,07,23.70
2006,08,03,17,08,23.70
2006,08,03,17,09,23.70
2006,08,03,17,10,23.70
2006,08,03,17,11,23.70
2006,08,03,17,12,23.60
2006,08,03,17,13,23.60
2006,08,03,17,14,23.60
2006,08,03,17,15,23.70
2006,08,03,17,16,23.70
2006,08,03,17,17,23.70
2006,08,03,17,18,23.70
2006,08,03,17,19,23.70
2006,08,03,17,20,23.70
2006,08,03,17,21,23.70
2006,08,03,17,22,23.70
2006,08,03,17,23,23.70